Overview Statistics Trail Chart Weather Telemetry Raw packets
 

This is the latest recevied weather packets stored in our database for station/object DB7GV-8. If no packets are shown the sender has not sent any weather packets the latest 10 day(s).

<< 21 22 23 24 25 26 27 >>
Time Temp. Humidity Pressure Rain* Wind** Luminosity Snow
1777216949 25° C 20% 1019.7 hPa - - - -
1777216044 25° C 20% 1019.7 hPa - - - -
1777215140 24.44° C 17% 1019.7 hPa - - - -
1777214233 25° C 15% 1019.8 hPa - - - -
1777213328 25.56° C 19% 1020 hPa - - - -
1777212422 25.56° C 20% 1019.9 hPa - - - -
1777211517 25.56° C 21% 1020 hPa - - - -
1777210612 25.56° C 20% 1020.2 hPa - - - -
1777209707 25° C 20% 1020.5 hPa - - - -
1777208801 25° C 21% 1020.5 hPa - - - -
1777206990 24.44° C 22% 1020.8 hPa - - - -
1777206084 25.56° C 22% 1020.9 hPa - - - -
1777205179 25.56° C 21% 1021 hPa - - - -
1777204274 25.56° C 20% 1021.1 hPa - - - -
1777203369 24.44° C 21% 1021.2 hPa - - - -
1777202463 23.89° C 21% 1021.3 hPa - - - -
1777201557 24.44° C 21% 1021.4 hPa - - - -
1777200652 25° C 20% 1021.5 hPa - - - -
1777199747 25.56° C 20% 1021.6 hPa - - - -
1777198841 25.56° C 20% 1021.6 hPa - - - -
1777197936 25.56° C 19% 1021.8 hPa - - - -
1777197031 25.56° C 20% 1021.8 hPa - - - -
1777196125 26.11° C 20% 1021.9 hPa - - - -
1777195220 25.56° C 20% 1021.9 hPa - - - -
1777194314 25° C 22% 1021.9 hPa - - - -

* Rain since midnight (hover to see other rain measurements)
** Current wind speed in m/s (hover to see current wind gust speed)